Regional Weather Roundup
Issued by NWS

Home | Current Version | Previous Version | Text Only | Print | Product List | Glossary Off
Versions: 1 2 3 4 5 6 7 8 9 10 11 12 13 14 15 16 17 18 19 20 21 22 23 24 25 26 27 28 29 30 31 32 33 34 35 36 37 38 39 40 41 42 43 44 45 46 47 48 49 50

128
ASUS43 KLSX 201957
RWRMO

WEATHER SUMMARY FOR MISSOURI
NATIONAL WEATHER SERVICE SPRINGFIELD MO
300 PM CDT SUN AUG 20 2017

NOTE: "FAIR" INDICATES FEW OR NO CLOUDS BELOW 12,000 FEET WITH NO
       SIGNIFICANT WEATHER AND/OR OBSTRUCTIONS TO VISIBILITY.
       CURRENT SKY AND/OR WEATHER CONDITIONS ARE NOT AVAILABLE FOR
       CHILLICOTHE AND FARMINGTON.

MOZ001>031-035>038-043-044-053-054-202100-
...NORTHERN AND WESTERN MISSOURI...

CITY           SKY/WX    TMP DP  RH WIND       PRES   REMARKS
KANSAS CTY INT MOSUNNY   87  71  58 E10       30.02R HX  93
LEE`S SUMMIT   MOSUNNY   87  73  62 SE10      30.01R HX  94
ST JOSEPH      CLOUDY    83  69  62 E14G21    30.04R
CHILLICOTHE      N/A     77  70  79 VRB3      30.04S

$$
MOZ066>068-077>081-088>096-101>105-202100-
...SOUTHWEST MISSOURI...

CITY           SKY/WX    TMP DP  RH WIND       PRES   REMARKS
SPRINGFIELD    MOSUNNY   89  75  63 VRB3      30.01F HX  99
JOPLIN         MOSUNNY   95  75  52 S13       29.98F HX 107
BRANSON        PTSUNNY   91  72  52 SW3       30.05F HX  98

$$
MOZ032>034-039>042-045>050-055>058-069>072-202100-
...CENTRAL MISSOURI...

CITY           SKY/WX    TMP DP  RH WIND       PRES   REMARKS
COLUMBIA       NOT AVBL
JEFFERSON CITY SUNNY     88  73  61 S9        29.99S HX  95
ROLLA          SUNNY     87  72  60 S9        30.04F HX  93
SEDALIA        SUNNY     89  75  63 S8        30.02S HX  99
WARRENSBURG    SUNNY     86  72  62 S8        30.00S HX  92

$$
MOZ051-052-059>065-202100-
...EAST CENTRAL MISSOURI...

CITY           SKY/WX    TMP DP  RH WIND       PRES   REMARKS
ST LOUIS INTL  MOSUNNY   90  68  48 VRB7      29.99F HX  94

$$
MOZ072>076-082>087-097>100-106>115-202100-
...SOUTH CENTRAL AND SOUTHEAST MISSOURI...

CITY           SKY/WX    TMP DP  RH WIND       PRES   REMARKS
CAPE GIRARDEAU CLOUDY    86  75  69 W7        30.02F HX  95
FARMINGTON     CLOUDY    75  72  88 S3        30.04F
POPLAR BLUFF   CLOUDY    82  71  69 S10       30.04R THUNDER HAZE
WEST PLAINS    SUNNY     83  69  62 VRB3      30.06F

$$



USA.gov is the U.S. government's official web portal to all federal, state and local government web resources and services.